FW4659 Weather Reports


time (UTC)temp
C
wind
direction
speed
KPH
gust
KPH
rain 1hr
cm
rain 24hr
cm
rain mn
cm
humidity
%
barometer
mb
20260507040814 11 116 0.0 1.6 0.00 0.00 0.00 87 1020.6
20260507040314 11 116 0.0 1.6 0.00 0.00 0.00 87 1020.5
20260507035755 11 116 0.0 1.6 0.00 0.00 0.00 87 1020.5
20260507035249 11 116 0.0 4.8 0.00 0.00 0.00 87 1020.5
20260507034736 11 116 0.0 0.0 0.00 0.00 0.00 87 1020.5
20260507034221 11 116 0.0 0.0 0.00 0.00 0.00 87 1020.5
20260507033712 11 116 0.0 1.6 0.00 0.00 0.00 87 1020.4
20260507033217 11 116 0.0 0.0 0.00 0.00 0.00 87 1020.4
20260507032706 11 116 0.0 1.6 0.00 0.00 0.00 87 1020.3
20260507032204 11 116 0.0 0.0 0.00 0.00 0.00 87 1020.3
20260507031650 11 115 0.0 4.8 0.00 0.00 0.00 87 1020.3
20260507031140 11 115 0.0 3.2 0.00 0.00 0.00 87 1020.2
20260507030639 12 115 0.0 4.8 0.00 0.00 0.00 87 1020.2
20260507030127 12 115 0.0 3.2 0.00 0.00 0.00 87 1020.2
20260507025619 12 115 0.0 8.0 0.00 0.00 0.00 86 1020.2
20260507025103 12 113 0.0 3.2 0.00 0.00 0.00 86 1020.1
20260507024549 12 112 0.0 3.2 0.00 0.00 0.00 86 1020.1
20260507024045 12 112 0.0 9.7 0.00 0.00 0.00 86 1020.0
20260507023546 12 104 0.0 4.8 0.00 0.00 0.00 86 1019.9
20260507023049 12 140 0.0 4.8 0.00 0.00 0.00 86 1019.9
20260507022541 12 140 0.0 8.0 0.00 0.00 0.00 86 1019.9
20260507022030 12 140 0.0 8.0 0.00 0.00 0.00 85 1019.8
20260507021523 12 62 0.0 8.0 0.00 0.00 0.00 85 1019.8
20260507021015 12 60 0.0 8.0 0.00 0.00 0.00 85 1019.8
20260507020508 12 88 0.0 4.8 0.00 0.00 0.00 85 1019.9
20260507015730 12 88 0.0 4.8 0.00 0.00 0.00 85 1019.9
20260507015213 12 84 0.0 3.2 0.00 0.00 0.00 85 1019.9
20260507014435 12 85 0.0 4.8 0.00 0.00 0.00 85 1019.9
20260507013945 12 69 0.0 4.8 0.00 0.00 0.00 85 1019.9
20260507013441 12 69 1.6 9.7 0.00 0.00 0.00 85 1020.0
20260507012924 12 67 1.6 9.7 0.00 0.00 0.00 84 1020.0
20260507012406 13 294 0.0 9.7 0.00 0.00 0.00 84 1020.0
20260507011904 13 298 1.6 9.7 0.00 0.00 0.00 84 1019.9
20260507011408 13 157 0.0 8.0 0.00 0.00 0.00 83 1020.0
20260507010642 13 180 0.0 1.6 0.00 0.00 0.00 83 1020.0
20260507010127 13 194 0.0 11.3 0.00 0.00 0.00 83 1020.0
20260507005608 13 210 0.0 11.3 0.00 0.00 0.00 84 1020.0
20260507005107 13 210 1.6 11.3 0.00 0.00 0.00 83 1020.0
20260507004617 13 139 0.0 11.3 0.00 0.00 0.00 83 1020.0
20260507004121 13 196 0.0 8.0 0.00 0.00 0.00 83 1020.0
20260507003606 13 163 0.0 6.4 0.00 0.00 0.00 83 1020.0
20260507003101 14 161 0.0 4.8 0.00 0.00 0.00 83 1019.9
20260507002339 14 161 0.0 8.0 0.00 0.00 0.00 83 1020.0
20260507001837 14 74 0.0 4.8 0.00 0.00 0.00 83 1019.9
20260507001337 14 38 0.0 4.8 0.00 0.00 0.00 83 1019.9
20260507000840 14 15 0.0 0.0 0.00 0.00 0.00 83 1019.9
20260507000346 14 11 1.6 11.3 0.00 0.00 0.00 82 1020.0
20260506235836 14 34 0.0 6.4 0.00 0.00 0.00 82 1019.9
20260506235317 14 60 0.0 0.0 0.00 0.00 0.00 83 1019.9
20260506234824 14 52 0.0 6.4 0.00 0.00 0.00 82 1019.9
20260506234319 14 124 1.6 9.7 0.00 0.00 0.00 82 1019.9
20260506233811 14 126 1.6 9.7 0.00 0.00 0.00 82 1019.8
20260506233256 14 104 0.0 9.7 0.00 0.00 0.00 82 1019.8
20260506232743 15 109 0.0 9.7 0.00 0.00 0.00 82 1019.8
20260506232251 15 69 0.0 8.0 0.00 0.00 0.00 81 1019.8
20260506231743 15 67 0.0 8.0 0.00 0.00 0.00 81 1019.8
20260506231244 15 106 0.0 8.0 0.00 0.00 0.00 81 1019.9
20260506230748 15 106 0.0 4.8 0.00 0.00 0.00 80 1019.9
20260506230256 15 107 0.0 11.3 0.00 0.00 0.00 80 1019.8
20260506225754 15 82 1.6 11.3 0.00 0.00 0.00 79 1019.9
20260506225024 15 139 1.6 11.3 0.00 0.00 0.00 79 1019.9
20260506224509 16 59 0.0 8.0 0.00 0.00 0.00 78 1019.9
20260506224017 16 25 0.0 3.2 0.00 0.00 0.00 78 1019.9
20260506223457 16 98 0.0 6.4 0.00 0.00 0.00 77 1020.0
20260506223000 16 98 0.0 6.4 0.00 0.00 0.00 77 1020.0
20260506222459 16 288 1.6 9.7 0.00 0.00 0.00 77 1020.0
20260506221939 17 311 1.6 9.7 0.00 0.00 0.00 75 1020.0
20260506221425 17 319 0.0 11.3 0.00 0.00 0.00 75 1020.0
20260506220931 17 325 1.6 11.3 0.00 0.00 0.00 75 1020.0
20260506220152 17 19 1.6 11.3 0.00 0.00 0.00 75 1020.0
20260506215655 17 226 1.6 8.0 0.00 0.00 0.00 75 1019.9
20260506215137 17 200 1.6 8.0 0.00 0.00 0.00 75 1020.0
20260506214628 17 240 1.6 12.9 0.00 0.00 0.00 75 1020.0
20260506214110 17 234 1.6 12.9 0.00 0.00 0.00 75 1019.9
20260506213604 17 11 1.6 12.9 0.00 0.00 0.00 74 1020.0
20260506213050 17 5 1.6 12.9 0.00 0.00 0.00 77 1020.0
20260506212549 17 247 1.6 11.3 0.00 0.00 0.00 76 1020.0
20260506212050 17 293 1.6 12.9 0.00 0.00 0.00 75 1020.0
20260506211538 16 284 1.6 12.9 0.00 0.00 0.00 77 1020.0
20260506211036 16 279 1.6 11.3 0.00 0.00 0.00 75 1020.0
20260506210526 17 263 1.6 11.3 0.00 0.00 0.00 75 1020.0
20260506210029 17 258 0.0 9.7 0.00 0.00 0.00 73 1020.0
20260506205517 17 255 1.6 1.6 0.00 0.00 0.00 76 1019.9
20260506204735 17 269 1.6 9.7 0.00 0.00 0.00 75 1019.9
20260506204220 16 266 0.0 11.3 0.00 0.00 0.00 74 1019.8
20260506203727 16 258 1.6 11.3 0.00 0.00 0.00 75 1020.0
20260506202948 16 249 1.6 11.3 0.00 0.00 0.00 78 1020.0
20260506202449 16 242 3.2 11.3 0.00 0.00 0.00 78 1020.0
20260506201713 16 244 1.6 11.3 0.00 0.00 0.00 75 1020.0
20260506201212 16 244 0.0 4.8 0.00 0.00 0.00 77 1020.0
20260506200705 16 244 0.0 1.6 0.00 0.00 0.00 79 1020.1
20260506200157 15 244 0.0 6.4 0.00 0.00 0.00 78 1020.1
20260506195641 15 244 0.0 9.7 0.00 0.00 0.00 81 1020.1
20260506194902 15 246 3.2 9.7 0.00 0.00 0.00 82 1020.2
20260506194411 15 247 1.6 9.7 0.00 0.00 0.00 81 1020.2
20260506193626 15 271 0.0 4.8 0.00 0.00 0.00 82 1020.1
20260506193119 15 271 0.0 4.8 0.00 0.00 0.00 83 1020.1
20260506192352 14 271 0.0 3.2 0.00 0.00 0.00 84 1020.2
20260506191837 14 271 0.0 4.8 0.00 0.00 0.00 84 1020.0
20260506191324 14 271 0.0 4.8 0.00 0.00 0.00 85 1020.2
20260506190815 14 271 0.0 9.7 0.00 0.00 0.00 86 1020.2
20260506190315 13 271 1.6 9.7 0.00 0.00 0.00 88 1020.3
20260506185528 13 271 1.6 9.7 0.00 0.00 0.00 87 1020.3
20260506185013 13 287 0.0 6.4 0.00 0.00 0.00 87 1020.3
20260506184455 13 287 1.6 6.4 0.00 0.00 0.00 88 1020.3
20260506183935 13 289 0.0 9.7 0.00 0.00 0.00 89 1020.3
20260506183429 13 296 0.0 4.8 0.00 0.00 0.00 89 1020.2
20260506182709 13 296 0.0 1.6 0.00 0.00 0.00 89 1020.2
20260506182210 13 296 0.0 4.8 0.00 0.00 0.00 89 1020.2
20260506181436 13 296 0.0 4.8 0.00 0.00 0.00 89 1020.2
20260506180930 13 296 0.0 4.8 0.00 0.00 0.00 90 1020.2
20260506180144 13 296 0.0 4.8 0.00 0.00 0.00 89 1020.2
20260506175631 13 296 0.0 0.0 0.00 0.00 0.00 90 1020.2
20260506175115 13 296 0.0 1.6 0.00 0.00 0.00 90 1020.1
20260506174610 12 296 0.0 1.6 0.00 0.00 0.00 91 1020.0
20260506174112 12 296 0.0 6.4 0.00 0.00 0.00 91 1020.0
20260506173604 12 296 0.0 6.4 0.00 0.00 0.00 91 1019.8
20260506173046 12 306 0.0 3.2 0.00 0.00 0.00 91 1019.7
20260506172533 12 306 0.0 3.2 0.00 0.00 0.00 92 1019.8
20260506172040 12 306 1.6 3.2 0.00 0.00 0.00 91 1019.8
20260506171525 12 306 0.0 3.2 0.00 0.00 0.00 91 1019.8
20260506171007 12 306 0.0 3.2 0.00 0.00 0.00 91 1019.9
20260506170510 12 306 0.0 0.0 0.00 0.00 0.00 91 1019.6
20260506165744 12 306 0.0 1.6 0.00 0.00 0.00 91 1019.7
20260506165230 12 306 0.0 0.0 0.00 0.00 0.00 90 1019.7
20260506164732 12 306 0.0 0.0 0.00 0.00 0.00 90 1019.8
20260506163948 12 306 0.0 3.2 0.00 0.00 0.00 89 1019.7
20260506163442 12 306 0.0 1.6 0.00 0.00 0.00 89 1019.7
20260506162933 12 306 0.0 1.6 0.00 0.00 0.00 90 1019.7
20260506162422 12 306 0.0 1.6 0.00 0.00 0.00 90 1019.7
20260506161918 12 306 0.0 3.2 0.00 0.00 0.00 90 1019.6
20260506161425 12 306 0.0 3.2 0.00 0.00 0.00 91 1019.6
20260506160914 12 306 0.0 1.6 0.00 0.00 0.00 91 1019.7
20260506160421 12 306 0.0 1.6 0.00 0.00 0.00 91 1019.7
20260506155928 12 306 0.0 6.4 0.00 0.00 0.00 91 1019.7
20260506155426 12 306 0.0 3.2 0.00 0.00 0.00 91 1019.6
20260506154921 12 306 0.0 3.2 0.00 0.00 0.00 90 1019.6
20260506154147 12 307 0.0 6.4 0.00 0.00 0.00 91 1019.6
20260506153629 12 348 0.0 0.0 0.00 0.00 0.00 91 1019.6
20260506153118 12 349 0.0 4.8 0.00 0.00 0.00 91 1019.3
20260506152342 12 40 0.0 4.8 0.00 0.00 0.00 91 1019.2
20260506151836 12 40 0.0 4.8 0.00 0.00 0.00 92 1019.1
20260506151320 11 40 0.0 4.8 0.00 0.00 0.00 92 1018.6
20260506150555 11 40 0.0 4.8 0.00 0.00 0.00 92 1018.8
20260506150051 11 40 0.0 4.8 0.00 0.00 0.00 93 1018.8
20260506145558 11 40 0.0 1.6 0.00 0.00 0.00 94 1019.0
20260506145100 11 40 0.0 1.6 0.00 0.00 0.00 94 1019.1
20260506144554 11 40 0.0 0.0 0.00 0.00 0.00 95 1019.2
20260506143830 11 40 0.0 0.0 0.00 0.00 0.00 95 1019.4
20260506143050 11 40 0.0 1.6 0.00 0.00 0.00 95 1019.5
20260506142557 11 40 0.0 3.2 0.00 0.00 0.00 95 1019.5
20260506142051 11 40 0.0 4.8 0.00 0.00 0.00 95 1019.5
20260506141319 11 40 0.0 3.2 0.00 0.00 0.00 96 1019.4
20260506140821 11 40 0.0 0.0 0.00 0.00 0.00 96 1019.3
20260506140100 11 40 0.0 0.0 0.00 0.00 0.00 96 1019.4
20260506135552 11 40 0.0 0.0 0.00 0.00 0.00 96 1019.4
20260506135047 10 40 0.0 0.0 0.00 0.00 0.00 96 1019.0
20260506134300 10 40 0.0 1.6 0.00 0.00 0.00 96 1018.8
20260506133517 10 40 0.0 1.6 0.00 0.00 0.00 96 1018.7
20260506132744 10 40 0.0 0.0 0.00 0.00 0.00 96 1018.8
20260506132233 10 40 0.0 0.0 0.00 0.00 0.00 96 1018.8
20260506131714 10 40 0.0 1.6 0.00 0.00 0.00 96 1018.7
20260506130934 10 40 0.0 0.0 0.00 0.00 0.00 96 1018.6
20260506130429 10 40 0.0 1.6 0.00 0.00 0.00 96 1018.6
20260506125919 11 40 0.0 0.0 0.00 0.00 0.00 96 1018.5
20260506125425 11 40 0.0 1.6 0.00 0.00 0.00 96 1018.5
20260506124925 11 40 0.0 0.0 0.00 0.00 0.00 96 1018.5
20260506124415 11 40 0.0 1.6 0.00 0.00 0.00 96 1018.4
20260506123635 11 40 0.0 0.0 0.00 0.00 0.00 96 1018.3
20260506123144 11 40 0.0 0.0 0.00 0.00 0.00 96 1018.3
20260506122646 11 40 0.0 1.6 0.00 0.00 0.00 96 1018.2
20260506122148 11 40 0.0 0.0 0.00 0.00 0.00 96 1018.2
20260506121634 11 40 0.0 0.0 0.00 0.00 0.00 96 1018.2
20260506121137 11 40 0.0 0.0 0.00 0.00 0.00 96 1018.1
20260506120617 11 40 0.0 0.0 0.00 0.00 0.00 96 1018.1
20260506120057 11 40 0.0 3.2 0.00 0.00 0.00 96 1018.1
20260506115600 11 40 0.0 3.2 0.00 0.00 0.00 96 1018.1
20260506115104 11 40 0.0 3.2 0.00 0.00 0.00 96 1018.1
20260506114613 11 40 0.0 0.0 0.00 0.00 0.00 96 1018.2
20260506114115 11 40 0.0 1.6 0.00 0.00 0.00 96 1018.1
20260506113606 11 40 0.0 0.0 0.00 0.00 0.00 96 1018.1
20260506113111 11 40 0.0 0.0 0.00 0.00 0.00 96 1018.1
20260506112604 11 40 0.0 0.0 0.00 0.00 0.00 96 1018.0
20260506112102 11 40 0.0 1.6 0.00 0.00 0.00 95 1017.9
20260506111552 11 40 0.0 0.0 0.00 0.00 0.00 95 1017.9
20260506110814 11 40 0.0 3.2 0.00 0.00 0.00 95 1017.9
20260506110320 11 40 0.0 0.0 0.00 0.00 0.00 95 1017.8
20260506105818 11 40 0.0 0.0 0.00 0.00 0.00 95 1017.8
20260506105324 11 40 0.0 0.0 0.00 0.00 0.00 95 1017.7
20260506104832 11 40 0.0 0.0 0.00 0.00 0.00 95 1017.7
20260506104319 11 40 0.0 3.2 0.00 0.00 0.00 95 1017.6
20260506103801 11 40 0.0 0.0 0.00 0.00 0.00 95 1017.6
20260506103249 11 40 0.0 3.2 0.00 0.00 0.00 95 1017.6
20260506102744 11 40 0.0 0.0 0.00 0.00 0.00 95 1017.6
20260506102249 11 40 0.0 0.0 0.00 0.00 0.00 95 1017.5
20260506101745 11 40 0.0 0.0 0.00 0.00 0.00 95 1017.4
20260506101227 11 40 0.0 0.0 0.00 0.00 0.00 95 1017.3
20260506100727 11 40 0.0 3.2 0.00 0.00 0.00 95 1017.3
20260506095946 11 40 0.0 1.6 0.00 0.00 0.00 95 1017.2
20260506095428 11 40 0.0 0.0 0.00 0.00 0.00 95 1017.2
20260506094937 11 40 0.0 3.2 0.00 0.00 0.00 95 1017.0
20260506094154 11 40 0.0 0.0 0.00 0.00 0.00 95 1017.0
20260506093659 11 40 0.0 0.0 0.00 0.00 0.00 95 1017.0
20260506093140 11 40 0.0 1.6 0.00 0.00 0.00 95 1017.0
20260506092643 11 40 0.0 0.0 0.00 0.00 0.00 95 1016.9
20260506092150 11 40 0.0 4.8 0.00 0.00 0.00 95 1016.9
20260506091643 11 36 0.0 0.0 0.00 0.00 0.00 95 1016.8
20260506091129 11 36 0.0 0.0 0.00 0.00 0.00 95 1016.8
20260506090619 11 36 0.0 1.6 0.00 0.00 0.00 95 1016.7
20260506090110 11 36 0.0 6.4 0.00 0.00 0.00 95 1016.7
20260506085610 11 36 0.0 1.6 0.00 0.00 0.00 95 1016.8
20260506085116 11 36 0.0 0.0 0.00 0.00 0.00 95 1016.8
20260506084622 11 36 0.0 1.6 0.00 0.00 0.00 95 1016.8
20260506084111 11 36 0.0 0.0 0.00 0.00 0.00 95 1016.8
20260506083612 11 36 0.0 1.6 0.00 0.00 0.00 95 1016.8
20260506083121 11 36 0.0 1.6 0.00 0.00 0.00 95 1016.8
20260506082618 11 36 0.0 0.0 0.00 0.00 0.00 95 1016.9
20260506082103 11 36 0.0 0.0 0.00 0.00 0.00 95 1016.8
20260506081610 11 36 0.0 0.0 0.00 0.00 0.00 95 1016.8
20260506081055 11 36 0.0 0.0 0.00 0.00 0.00 95 1016.7
20260506080558 11 36 0.0 1.6 0.00 0.00 0.00 95 1016.7
20260506073029 11 35 0.0 0.0 0.00 0.00 0.00 95 1016.5
20260506072518 11 35 0.0 0.0 0.00 0.00 0.00 95 1016.5
20260506072016 11 35 0.0 0.0 0.00 0.00 0.00 95 1016.5
20260506071458 11 35 0.0 0.0 0.00 0.00 0.00 95 1016.4
20260506071004 11 35 0.0 3.2 0.00 0.00 0.00 95 1016.3
20260506070446 11 36 0.0 3.2 0.00 0.00 0.00 95 1016.2
20260506062345 11 35 0.0 3.2 0.00 0.00 0.00 94 1016.0
20260506061835 11 35 0.0 4.8 0.00 0.00 0.00 94 1015.9
20260506061104 11 36 0.0 4.8 0.00 0.00 0.00 94 1015.8
20260506060553 11 36 0.0 3.2 0.00 0.00 0.00 94 1015.9
20260506051253 11 35 0.0 0.0 0.00 0.00 0.00 93 1015.8
20260506050746 11 35 0.0 3.2 0.00 0.00 0.00 93 1015.7
20260506050241 11 35 0.0 3.2 0.00 0.00 0.00 93 1015.7
20260506044722 12 35 1.6 6.4 0.00 0.00 0.00 92 1015.5
20260506044215 12 36 1.6 6.4 0.00 0.00 0.00 92 1015.5
20260506043725 12 35 1.6 6.4 0.00 0.00 0.00 92 1015.5
20260506043234 12 35 0.0 3.2 0.00 0.00 0.00 92 1015.4
20260506042718 12 34 0.0 0.0 0.00 0.00 0.00 91 1015.3
20260506042221 12 34 0.0 6.4 0.00 0.00 0.00 91 1015.3
20260506041706 12 63 0.0 4.8 0.00 0.00 0.00 91 1015.1
20260506041158 12 63 0.0 3.2 0.00 0.00 0.00 91 1015.1